User: anonymous   Login
Location: Muenchen
(48.1800°N, 11.5800°E)
Time: 12:09:41
(UTC+01:00)
Language:

ISS - Orbit

View from above orbital plane
View from above orbital plane
View from above satellite
View from above satellite

Ground track
Ground track

The orbit data is extracted from the following two-line orbital elements,

1 25544U 98067A   14305.13708079  .00019792  00000-0  34346-3 0  3342
2 25544 051.6449 140.7082 0003668 351.3322 108.2900 15.50846431912576
Epoch (UTC): 01 November 2014 03:17:23
Eccentricity: 0.0003668
inclination: 51.6449°
perigee height: 412 km
apogee height: 417 km
right ascension of ascending node: 140.7082°
argument of perigee: 351.3322°
revolutions per day: 15.50846431
mean anomaly at epoch: 108.2900°
orbit number at epoch: 91257

The dashed part of the orbit path shows where the satellite is in the earth's shadow,  

DLR